Simultaneous Nadir Overpasses (SNOs) Predictions

Prediction of SNOs between GOES-15 and NOAA-19 Satellite Orbit:

Table of predicted SNOs for the next 14.0 days since TLE Epoch: 3/16/2017
Index Date Time (GOES-15) GOES-15 Lat,Lon NOAA-19 Lat,Lon Distance(km) Time Diff (sec)
1 03/18/2017 00:15:19 -0.04,-134.53 -0.68,-137.22 307.40 80
2 03/19/2017 00:06:34 -0.04,-134.48 -0.03,-134.44 4.66 80
3 03/19/2017 23:55:08 -0.04,-134.43 0.62,-131.66 316.57 80
4 03/22/2017 12:16:40 0.04,-134.27 0.60,-136.78 286.54 80
5 03/23/2017 12:02:34 0.04,-134.21 -0.01,-133.99 24.97 80
6 03/24/2017 11:51:07 0.04,-134.15 -0.62,-131.20 336.34 80
7 03/27/2017 00:12:52 -0.05,-134.03 -0.62,-136.37 268.78 80
8 03/28/2017 00:04:06 -0.05,-133.96 0.04,-133.60 42.02 80
9 03/28/2017 23:52:40 -0.05,-133.90 0.64,-130.80 352.64 80




NCC Satellite Simultaneous Nadir Overpasses (SNOs) Prediction Service
